Simultaneous Nadir Overpasses (SNOs) Predictions

Prediction of SNOs between NOAA-19 and TERRA Satellite Orbit:

Table of predicted SNOs for the next 14.0 days since TLE Epoch: 12/19/2020
Index Date (NOAA-19) Time (NOAA-19) Lat,Lon (NOAA-19) SZA (NOAA-19 ) Date (TERRA) Time (TERRA) Lat,Lon (TERRA) SZA (TERRA ) Distance(km) Time Diff (sec)
1 12/20/2020 10:03:53 79.94, 60.06 104.72 12/20/2020 10:05:05 79.95, 60.15 104.77 2.32 72
2 12/20/2020 10:54:53 -79.92,-132.45 75.28 12/20/2020 10:54:33 -79.91,-132.50 75.29 1.12 20
3 12/22/2020 16:28:07 79.94, -35.91 104.70 12/22/2020 16:28:16 79.92, -35.84 104.70 1.79 9
4 12/24/2020 22:01:20 -79.93, 60.94 75.36 12/24/2020 22:02:00 -79.93, 60.79 75.36 2.95 40
5 12/24/2020 22:52:20 79.91,-131.57 104.65 12/24/2020 22:51:26 79.93,-131.57 104.65 2.27 54
6 12/27/2020 03:34:35 79.95, 157.49 104.55 12/27/2020 03:35:43 79.94, 157.38 104.55 2.66 68
7 12/27/2020 04:25:33 -79.92, -34.91 75.45 12/27/2020 04:25:10 -79.94, -34.95 75.45 2.14 23
8 12/29/2020 09:58:49 79.95, 61.50 104.41 12/29/2020 09:58:53 79.94, 61.61 104.41 2.57 4
9 12/31/2020 15:32:01 -79.96, 158.12 75.77 12/31/2020 15:32:37 -79.94, 158.22 75.77 3.00 36



Historial Predications of SNOs between NOAA-19 and TERRA
